Location: ????????
(56.0167°N, 38.0333°E)
Time: 18:40:06
(UTC+00:00)

Daily predictions for brighter satellites

Satellite Brightness Start Highest point End
(mag) Time Altitude Azimuth Time Altitude Azimuth Time Altitude Azimuth
SPOT 3 Rocket 3.6 18:23:36 10° SSE 18:28:44 75° ENE 18:33:53 10° NNW
Cosmos 1933 3.3 18:26:04 10° SSW 18:29:57 83° WNW 18:33:50 10° N
NOSS 2-3 (C) 3.8 18:27:05 10° WSW 18:30:41 67° NNW 18:35:01 10° NE
ERS-1 Rocket 3.8 18:27:50 10° S 18:32:42 50° W 18:37:37 10° NNW
Okean-O 3.6 18:28:52 10° S 18:33:05 45° W 18:37:20 10° NNW
NOSS 3-1 (C) 3.8 18:33:51 10° S 18:38:11 32° ESE 18:43:19 10° ENE
Cosmos 1743 4.0 18:39:27 10° NNW 18:42:34 33° W 18:45:40 10° SSW
Cosmos 2333 Rocket 3.9 18:38:57 10° NNW 18:43:55 28° NNE 18:48:49 10° E
Spot 2 Rocket 3.9 18:39:14 10° S 18:44:13 62° WSW 18:49:15 10° NNW
ISS -2.7 18:44:21 10° WSW 18:47:21 30° SSW 18:50:20 10° SE
Lacrosse 4 Rocket 3.2 18:44:14 10° WSW 18:47:55 36° NW 18:51:41 10° NNE
IKONOS-2 4.4 18:45:05 10° NNE 18:49:14 82° ESE 18:53:21 10° SSW
ARIANE 6 FM1 Upper Stage 2.7 18:45:26 10° SSW 18:49:19 50° SE 18:53:16 10° ENE
Cosmos 1821 Rocket 4.2 18:43:36 10° N 18:49:41 58° ENE 18:55:40 10° SSE
Cosmos 1833 Rocket 2.8 18:44:40 10° SSW 18:50:12 60° ESE 18:55:47 10° NE
Cosmos 2218 Rocket 4.1 18:47:55 10° N 18:54:21 85° ENE 19:00:41 10° SSE
Cosmos 1356 Rocket 3.6 18:54:00 10° S 18:58:00 52° E 19:02:00 10° NNE
Cosmos 1733 3.7 18:57:08 10° NNW 19:00:05 41° W 19:03:00 10° SSW
Cosmos 2219 Rocket 4.2 18:55:40 10° NNW 19:00:09 23° NNE 19:04:37 10° ENE
Cosmos 158 Rocket 4.1 18:55:46 10° SSW 19:01:06 86° ESE 19:06:32 10° NNE
NOSS 3-1 (A) 4.1 19:03:54 10° S 19:07:54 25° ESE 19:12:33 10° ENE
USA 234 3.4 19:01:39 10° ENE 19:08:03 54° SSE 19:14:27 10° SW
Cosmos 2058 Rocket 4.1 19:04:18 10° SSW 19:08:38 48° WNW 19:12:58 10° N
Helios 1A 4.4 19:06:12 10° N 19:09:59 38° WNW 19:13:44 10° SW
Cosmos 1980 Rocket 2.3 19:04:50 10° NW 19:10:26 74° WSW 19:15:43 12° SSE
Cosmos 1805 3.1 19:10:36 10° N 19:14:04 64° ENE 19:17:00 14° SSE
Cosmos 1812 Rocket 3.5 19:12:30 10° S 19:16:47 71° E 19:21:06 10° NNE
Terra 3.7 19:14:24 10° SSW 19:18:15 25° W 19:22:08 10° NW
SWARM A 4.3 19:15:09 10° S 19:18:32 86° W 19:21:57 10° N
Meteor 1-26 Rocket 4.5 19:14:13 10° SSW 19:20:08 83° WNW 19:26:13 10° NNE
Cosmos 2181 Rocket 4.1 19:14:46 10° S 19:21:01 72° E 19:27:23 10° NNE
SL-16 R/B 2.9 19:16:00 10° NNW 19:21:32 49° NE 19:27:01 10° ESE
Cosmos 2208 Rocket 4.1 19:16:46 10° S 19:22:05 62° ESE 19:27:20 10° NNE
Meteor 1-11 Rocket 3.9 19:18:05 10° N 19:23:36 62° ENE 19:28:28 13° SSE
ATLAS CENTAUR R/B 1.1 19:20:10 10° SW 19:23:54 88° NW 19:27:48 10° NE
Cosmos 1315 Rocket 2.7 19:20:27 10° S 19:24:18 66° E 19:28:10 10° NNE
SL-24 R/B 4.1 19:21:49 10° NNE 19:26:09 69° ESE 19:30:33 10° S
Cosmos 2344 4.0 19:19:20 10° WSW 19:26:35 67° NNW 19:34:21 10° ENE
DELTA 2 DEB (DPAF) 4.1 19:26:08 10° NNE 19:30:01 51° ESE 19:33:24 13° S
Cosmos 2322 Rocket 3.3 19:25:05 10° NNW 19:30:27 40° NE 19:35:46 10° ESE
Cosmos 2237 4.4 19:25:08 10° NNW 19:30:51 70° NE 19:36:07 12° SE
BlueWalker 3 3.8 19:32:20 10° WSW 19:34:34 16° SW 19:36:16 12° S
Meteor 1-14 Rocket 4.4 19:30:25 10° NNW 19:36:00 71° W 19:41:17 12° S
Genesis I 2.7 19:34:01 10° NW 19:36:45 57° NE 19:39:01 14° ESE
Cosmos 1975 3.5 19:34:47 10° N 19:38:15 37° ENE 19:40:56 15° SE
Cosmos 1697 Rocket 4.2 19:37:31 10° NW 19:42:09 27° WSW 19:46:47 10° SSW
Ariane Rocket 4.2 19:37:45 10° SSW 19:42:23 35° W 19:47:03 10° NNW
Nadezhda 3 Rocket 4.2 19:37:18 13° SSE 19:42:45 56° E 19:48:51 10° NNE
CZ-4C R/B 3.7 19:39:33 10° NNE 19:43:03 39° E 19:45:23 17° SSE
CENTAUR R/B 3.5 19:36:50 10° NW 19:44:21 67° NNE 19:53:20 10° ESE
Cosmos 1934 Rocket 4.3 19:39:33 10° N 19:45:44 61° ENE 19:51:02 15° SSE
Cosmos 2278 4.0 19:42:08 10° NNW 19:47:47 66° NE 19:52:56 12° SE
ATLAS 3B R/B 4.0 19:42:57 14° SSE 19:47:48 26° ESE 19:53:57 10° ENE
Cosmos 1570 Rocket 4.3 19:43:25 10° SW 19:48:40 73° WNW 19:53:59 10° NNE
Cosmos 1238 Rocket 2.7 19:46:14 10° SSW 19:49:50 64° WNW 19:53:02 10° N
ARIANE 5 R/B 2.9 19:46:27 16° SE 19:49:51 59° ENE 19:54:10 10° N
Cosmos 2360 Rocket 3.1 19:44:51 10° NNW 19:50:15 44° NE 19:55:38 10° ESE
Cosmos 1842 Rocket 4.3 19:48:46 17° SSE 19:51:40 37° E 19:55:39 10° NNE
Meteor 2-6 Rocket 4.4 19:49:01 10° SSW 19:54:52 80° WNW 20:00:36 10° NNE
Cosmos 2369 4.0 19:49:34 10° NW 19:55:07 57° WSW 19:59:34 16° S
Cosmos 1766 3.4 19:52:16 10° N 19:55:39 50° ENE 19:57:53 19° SE
Cosmos 1470 3.9 19:53:53 10° N 19:57:02 28° ENE 19:59:30 14° ESE
Cosmos 1908 3.8 19:55:33 10° N 19:58:36 35° ENE 20:00:38 17° SE
Cosmos 1536 3.5 19:56:00 10° NNW 19:59:38 43° W 20:02:41 14° SSW
SeaSat 1 3.5 19:57:02 13° S 20:00:53 35° WSW 20:05:24 10° NW
CZ-2C R/B 4.2 19:58:34 10° NNE 20:02:46 42° E 20:05:40 18° SSE
Cosmos 2221 3.0 20:01:27 10° SSW 20:05:33 56° WNW 20:09:41 10° N
Cosmos 2082 Rocket 2.3 20:00:19 10° SSW 20:05:46 59° ESE 20:11:19 10° NE
Cosmos 405 Rocket 2.4 20:02:45 10° NNW 20:06:13 81° WSW 20:08:21 21° S
Okean 1 4.1 20:08:31 10° SW 20:12:03 44° WNW 20:15:36 10° N
COBE Rocket 4.0 20:11:49 10° NNE 20:16:56 86° WNW 20:21:35 13° SSW
Meteor 1-10 Rocket 4.3 20:11:55 13° S 20:17:19 88° ESE 20:23:10 10° NNE
Cosmos 773 Rocket 4.2 20:13:10 10° SW 20:18:18 71° WNW 20:23:27 10° NNE
Okean 3 Rocket 3.6 20:14:23 10° NNW 20:18:48 85° W 20:21:53 20° S
Cosmos 1674 2.4 20:18:53 19° SW 20:20:05 38° WNW 20:22:12 10° N
Landsat 5 3.9 20:17:37 10° NNE 20:21:39 47° E 20:24:15 20° SSE
COSMOS 2406 3.5 20:17:11 15° S 20:21:42 52° ESE 20:27:14 10° NE
Cosmos 1766 Rocket 4.4 20:17:39 10° NNW 20:21:50 42° W 20:25:10 15° SSW
NOSS 3-2 (A) 4.3 20:16:06 10° NW 20:22:40 64° NNE 20:30:48 10° ESE
ISS -1.5 20:22:00 10° WSW 20:23:18 12° SW 20:23:18 12° SW
BREEZE-M R/B 4.3 20:15:56 10° W 20:25:02 29° SW 20:27:31 18° S
USA 59 Rocket 0.1 20:24:32 25° SSE 20:25:17 28° SE 20:27:54 10° ENE
Cosmos 220 Rocket 4.2 20:21:56 10° SW 20:26:00 65° WNW 20:30:03 10° NNE
Cosmos 2084 Rocket 3.4 20:22:02 10° SW 20:26:19 85° NNW 20:30:33 10° NE
NOSS 3-1 (C) 3.4 20:23:13 10° WSW 20:28:20 75° NNW 20:34:48 10° NE
ARIANE 6 FM1 Upper Stage 3.6 20:24:35 10° W 20:28:31 50° NNW 20:32:32 10° NE
Cosmos 2333 Rocket 2.3 20:23:18 10° NW 20:29:05 79° NE 20:33:55 15° SE
Cosmos 1842 3.9 20:29:20 22° SE 20:30:58 34° E 20:34:09 10° NNE
Cosmos 1833 Rocket 4.1 20:29:07 10° WSW 20:34:25 40° NW 20:39:45 10° NNE
NOSS 2-1 (E) 3.6 20:35:16 26° SSE 20:36:10 31° SE 20:38:55 10° ENE
MetOp-A 4.4 20:32:58 18° S 20:36:42 56° W 20:41:49 10° NNW
Meteor 2-13 Rocket 4.5 20:35:04 16° S 20:40:04 86° E 20:46:14 10° NNE
Cosmos 1455 4.1 20:40:32 10° NNE 20:41:54 13° ENE 20:43:16 10° E
Cosmos 1300 3.4 20:40:27 10° N 20:43:23 34° ENE 20:45:10 19° SE
Cosmos 1151 Rocket 3.7 20:42:48 21° SSE 20:45:13 40° E 20:49:11 10° NNE
ALOS 2 2.6 20:42:21 21° SSE 20:45:13 82° WSW 20:49:39 10° NNW
Cosmos 2219 Rocket 2.7 20:39:42 10° NNW 20:45:17 58° NE 20:50:49 10° SE
Cosmos 2333 4.4 20:41:07 10° NNW 20:46:50 72° NE 20:51:55 13° SE
USA 234 3.3 20:44:52 10° ENE 20:51:27 90° SSE 20:58:01 10° WSW
NOSS 2-1 (D) 2.9 20:50:18 25° SSW 20:51:48 47° SE 20:54:40 10° ENE
Meteor 2-4 Rocket 3.8 20:48:50 19° S 20:52:56 70° E 20:58:47 10° NNE
Meteor 1-27 Rocket 3.8 20:48:32 15° SSW 20:53:10 78° WNW 20:58:44 10° NNE
Cosmos 1980 Rocket 4.1 20:50:03 10° WNW 20:53:31 17° W 20:56:59 10° SW
NOSS 3-1 (A) 3.2 20:52:45 10° SW 20:57:51 87° NW 21:04:15 10° NE
Sich 1 3.3 20:55:08 10° NNW 20:59:19 58° W 21:01:52 22° SSW
ATLAS CENTAUR R/B 3.3 20:57:05 10° W 21:00:29 29° NNW 21:03:57 10° NE
Cosmos 1371 Rocket 4.3 20:55:16 10° NNW 21:00:37 67° ENE 21:05:13 14° SE
CZ-2C R/B 4.2 20:56:24 10° ESE 21:00:46 29° NE 21:05:09 10° N
BREEZE-M DEB (TANK) 3.9 20:53:23 10° W 21:03:10 34° SW 21:05:28 22° S
SL-16 R/B 2.7 21:00:15 10° NW 21:05:39 46° WSW 21:09:15 20° S
Cosmos 2056 Rocket 3.7 21:00:59 10° NNW 21:06:21 73° ENE 21:10:41 15° SE
PSLV R/B 3.7 21:02:51 10° NNE 21:07:00 57° ESE 21:09:23 23° S
Genesis I 4.2 21:07:46 10° WNW 21:09:43 17° WSW 21:09:43 17° WSW
Cosmos 1624 Rocket 4.1 21:05:10 10° NNW 21:10:24 75° ENE 21:14:39 16° SE
NOSS 2-1 (C) 2.5 21:09:43 21° SW 21:11:39 68° SE 21:14:38 10° NE
Cosmos 1975 4.2 21:10:25 10° NNW 21:13:28 25° W 21:15:35 15° SW
Cosmos 1500 Rocket 4.0 21:09:42 10° NNW 21:13:56 51° W 21:16:34 21° SSW
Cosmos 1538 Rocket 3.9 21:10:27 18° SSW 21:14:18 81° ESE 21:19:29 10° NNE
Cosmos 2322 Rocket 2.4 21:09:12 10° NW 21:14:47 60° WSW 21:18:38 20° S
NOSS 3-2 (C) 4.3 21:09:30 10° NW 21:16:07 64° NNE 21:24:16 10° ESE
Exosat Rocket 3.9 21:11:19 10° NW 21:16:16 48° WSW 21:19:21 21° S
Cosmos 1459 Rocket 4.3 21:11:28 10° N 21:17:32 60° ENE 21:22:37 15° SSE
H-2A R/B 3.5 21:15:01 12° SE 21:18:17 36° ENE 21:21:50 10° N
Cosmos 1707 2.5 21:18:01 25° SSW 21:19:49 66° WNW 21:23:10 10° N
COSMOS 2428 3.6 21:14:33 10° NNW 21:20:07 49° NE 21:25:40 10° ESE
Cosmos 1633 Rocket 3.4 21:16:31 10° N 21:20:50 58° ENE 21:23:51 19° SSE
Geosat FO 4.1 21:21:06 29° SSE 21:22:27 65° WSW 21:25:28 10° NW
Cosmos 44 Rocket 4.0 21:18:37 10° NW 21:23:18 53° NNE 21:28:04 10° ESE
Meteor 2-10 Rocket 3.9 21:19:46 10° NNW 21:25:30 73° ENE 21:30:04 17° SSE
ARIANE 5 R/B 4.3 21:23:51 13° SW 21:26:33 23° W 21:30:01 10° NW
Cosmos 1066 Rocket 4.3 21:23:03 20° S 21:27:02 81° ESE 21:32:51 10° NNE
Cosmos 1805 Rocket 4.4 21:25:48 10° NNW 21:29:56 40° W 21:32:35 20° SSW
Cosmos 1470 3.8 21:28:29 10° NNW 21:31:40 31° W 21:33:25 20° SW
Cosmos 2173 Rocket 4.1 21:25:48 10° N 21:32:13 77° ENE 21:37:12 17° SSE
Cosmos 2360 Rocket 2.5 21:28:57 10° NW 21:34:24 52° WSW 21:38:04 20° S
CENTAUR R/B 3.3 21:27:28 10° NW 21:35:20 63° SW 21:44:23 10° SSE
Meteor 1-18 Rocket 4.3 21:32:07 19° SSW 21:36:23 85° WNW 21:42:21 10° NNE
GP-B 3.1 21:32:11 10° N 21:36:36 76° W 21:39:19 23° SSW
ATLAS 3B R/B 3.0 21:30:06 10° SW 21:37:32 76° SE 21:45:26 10° NE
USA 229 DEB 3.7 21:33:24 17° SSW 21:38:05 58° SE 21:44:51 10° NE
USA 229 3.7 21:33:31 17° SSW 21:38:11 58° SE 21:44:55 10° NE
ASTEX 1 3.4 21:38:25 10° N 21:43:23 85° W 21:46:45 21° S
NOSS 2-2 (E) 4.4 21:40:43 10° NW 21:44:00 44° NNE 21:48:12 10° E
Spot 1 4.4 21:40:11 10° N 21:44:22 61° WNW 21:47:33 18° SW
GEOS 3 Rocket 3.5 21:41:33 10° SE 21:46:40 80° SW 21:51:51 10° NW
Cosmos 1758 3.6 21:43:00 10° N 21:46:49 59° ENE 21:49:25 19° SSE
Cosmos 1328 Rocket 3.8 21:46:16 22° S 21:48:54 60° E 21:53:10 10° NNE
Cosmos 2082 Rocket 3.4 21:44:50 10° WSW 21:50:07 40° NW 21:55:28 10° NNE
In-Cosmos 22 4.5 21:49:28 19° S 21:53:32 66° E 21:59:16 10° NNE
COSMOS 2455 4.4 21:49:27 10° NW 21:55:05 38° NNE 22:00:42 10° E
Cosmos 2112 Rocket 4.1 22:00:57 20° S 22:04:31 65° ESE 22:09:42 10° NNE
Cosmos 2237 Rocket 3.2 22:00:07 10° NNW 22:05:35 47° NE 22:11:02 10° ESE
COSMOS 2406 4.2 22:00:41 10° WSW 22:06:08 45° NW 22:11:39 10° NNE
ARIANE 6 FM1 Upper Stage 4.4 22:04:32 10° WNW 22:08:19 35° N 22:12:08 10° ENE
NOSS 2-2 (D) 3.8 22:08:48 10° NW 22:12:17 63° NNE 22:16:50 10° ESE
Cosmos 2061 Rocket 4.3 22:06:11 10° N 22:12:38 68° ENE 22:18:49 11° SSE
Cosmos 2333 Rocket 3.4 22:08:12 10° NW 22:12:50 26° WSW 22:15:53 17° SSW
NOSS 3-2 (A) 4.1 22:06:49 10° NW 22:13:47 62° SW 22:22:12 10° SSE
USA 59 Rocket 0.3 22:11:14 10° W 22:14:08 41° NNW 22:17:00 10° NE
Cosmos 1455 1.7 22:11:41 10° NNW 22:14:26 49° W 22:15:31 29° SSW
Cosmos 1300 4.0 22:14:08 10° NW 22:16:33 20° W 22:17:48 16° WSW
Cosmos 2322 3.7 22:14:35 10° NW 22:20:16 75° WSW 22:25:57 10° SSE
SL-14 R/B 3.2 22:18:45 22° S 22:21:08 81° ESE 22:25:02 10° NNE
Cosmos 1953 3.4 22:18:23 10° N 22:21:49 36° ENE 22:25:15 10° SE
Cosmos 1666 Rocket 4.4 22:18:17 10° NNW 22:22:17 36° W 22:24:54 19° SSW
Cosmos 1151 Rocket 4.4 22:19:28 12° SW 22:22:44 30° WNW 22:26:29 10° N
NOSS 2-2 (C) 3.3 22:19:38 10° NW 22:23:17 83° SW 22:28:12 10° SE
Cosmos 1110 Rocket 4.0 22:18:06 10° NNW 22:23:27 80° WSW 22:28:27 11° SSE
NOSS 2-1 (E) 3.9 22:22:17 10° W 22:25:15 40° NNW 22:28:10 10° NE
Cosmos 1452 Rocket 3.5 22:22:23 10° NNW 22:27:40 87° WSW 22:32:55 10° SSE
Cosmos 1437 Rocket 4.1 22:25:52 13° SSE 22:28:25 27° E 22:31:27 10° NE
Meteor 1-13 Rocket 4.4 22:24:25 17° S 22:29:00 75° E 22:34:58 10° NNE
Cosmos 2219 Rocket 2.9 22:23:56 10° NW 22:29:03 37° WSW 22:32:40 18° SSW
Cosmos 494 Rocket 4.0 22:27:54 19° SSW 22:31:37 71° ESE 22:36:46 10° NNE
Cosmos 923 Rocket 4.4 22:27:15 14° SW 22:31:46 61° WNW 22:37:04 10° NNE
USA 234 3.3 22:27:58 10° E 22:34:31 85° N 22:41:06 10° W
IRIDIUM 114 4.5 22:31:47 16° S 22:36:01 74° E 22:41:16 10° N
ATLAS CENTAUR R/B 3.9 22:34:27 10° NW 22:37:35 23° N 22:40:44 10° ENE
Landsat 4 4.4 22:38:50 20° SW 22:39:54 25° W 22:42:26 10° NW
CZ-2C R/B 2.6 22:36:30 16° S 22:40:42 65° WSW 22:45:52 10° NNW
NOSS 2-1 (D) 4.4 22:38:08 10° W 22:40:54 31° NNW 22:43:41 10° NE
SL-16 R/B 4.0 22:35:51 10° NNW 22:41:03 35° NE 22:46:12 10° ESE
Cosmos 2016 Rocket 4.1 22:37:22 10° NNW 22:43:26 61° W 22:48:30 15° S
SL-24 R/B - RUBIN 2 4.4 22:37:13 10° SW 22:43:28 78° NW 22:49:04 10° NE
Cosmos 1048 Rocket 4.3 22:39:54 17° S 22:43:45 57° ESE 22:48:46 10° NE
Cosmos 1680 Rocket 3.8 22:39:25 15° SW 22:43:47 64° WNW 22:49:00 10° NNE
IRIDIUM 103 4.4 22:40:55 16° S 22:45:10 86° E 22:50:26 10° N
Cosmos 1833 4.4 22:42:21 14° SW 22:47:20 77° NW 22:53:10 10° NNE
Cosmos 2297 Rocket 3.7 22:44:29 10° SSE 22:49:05 26° ESE 22:53:42 10° NE
Cosmos 1470 Rocket 4.4 22:46:24 10° NNW 22:50:18 34° W 22:53:03 17° SSW
H-2A R/B 3.3 22:50:24 18° SSW 22:52:41 31° W 22:56:12 10° NNW
Cosmos 1331 Rocket 4.2 22:49:30 10° NW 22:54:34 53° WSW 22:59:06 12° S
Cosmos 2322 Rocket 4.1 22:55:06 10° WNW 22:57:42 13° W 23:00:16 10° WSW
Cosmos 1302 Rocket 4.0 22:53:09 10° NNW 22:58:24 89° ENE 23:03:37 10° SSE
Aureole 3 Rocket 4.0 22:54:24 10° N 22:59:23 48° ENE 23:03:04 10° SE
Cosmos 921 Rocket 4.5 22:58:00 10° SSE 23:01:32 27° E 23:05:06 10° NE
Cosmos 1933 Rocket 3.9 22:57:41 10° NNW 23:02:00 51° W 23:05:26 15° SSW
IRIDIUM 106 4.4 22:59:11 15° SSW 23:03:30 72° W 23:08:45 10° N
COSMOS 2428 3.1 22:58:57 10° NW 23:04:25 47° WSW 23:09:50 10° S
Cosmos 44 Rocket 3.6 23:00:09 10° NW 23:04:43 45° SW 23:09:21 10° SSE
NOSS 2-3 (E) 4.5 23:00:06 10° NW 23:04:46 69° NNE 23:11:04 10° ESE
NOSS 3-2 (C) 4.1 23:00:17 10° NW 23:07:16 61° SW 23:15:40 10° SSE
NOSS 2-3 (D) 4.5 23:02:50 10° NW 23:07:29 67° NNE 23:13:43 10° ESE
SL-16 R/B 4.1 23:03:38 10° ESE 23:09:10 37° NE 23:14:45 10° N
Cosmos 2292 Rocket 4.2 23:06:33 10° S 23:12:00 62° E 23:16:18 10° NNE
Cosmos 1980 3.7 23:07:03 10° NW 23:12:45 76° WSW 23:18:24 10° SSE
Cosmos 2227 Rocket 4.1 23:10:27 10° SSE 23:14:31 21° ESE 23:18:36 10° NE
Cosmos 1869 Rocket 3.8 23:10:10 10° NNW 23:14:34 56° W 23:18:29 12° S
IDEFIX/ARIANE 42P 2.9 23:09:24 10° NNE 23:14:38 63° ESE 23:19:43 11° S
USA 238 DEB 4.0 23:08:41 10° NW 23:15:51 89° SW 23:23:45 10° SE
USA 238 4.0 23:08:47 10° NW 23:15:58 89° SW 23:23:51 10° SE
Cosmos 2360 Rocket 4.2 23:15:41 10° WNW 23:17:06 11° W 23:18:32 10° WSW
Cosmos 1515 Rocket 4.1 23:14:53 14° SW 23:18:23 46° WNW 23:22:39 10° N
NOSS 0 Rocket 4.2 23:13:31 10° NW 23:19:32 50° WSW 23:25:30 10° S
Resurs 1-4 Rocket 3.3 23:15:26 10° NNE 23:20:19 37° E 23:25:10 10° SSE
CENTAUR R/B 4.4 23:18:52 10° WNW 23:25:02 23° WSW 23:31:24 11° SSW
CZ-2C R/B 3.6 23:21:51 10° N 23:27:34 61° WNW 23:32:58 12° SW
Okean 2 3.6 23:24:22 10° S 23:28:14 62° E 23:32:08 10° NNE
ATLAS 3B R/B 3.6 23:21:14 10° W 23:28:49 57° NNW 23:36:38 10° ENE
USA 229 DEB 4.2 23:22:46 10° WSW 23:29:06 61° NNW 23:36:15 10° ENE
USA 229 4.1 23:22:53 10° WSW 23:29:11 61° NNW 23:36:20 10° ENE
H-2A R/B 2.2 23:25:04 10° NNE 23:29:13 63° ESE 23:33:14 10° S
Meteor 1-21 4.3 23:24:56 12° SSW 23:30:10 81° WNW 23:35:51 10° NNE
NOSS 2-2 (E) 3.8 23:30:01 10° WNW 23:33:37 46° SW 23:38:27 10° SSE
NPP 3.8 23:31:44 10° NNE 23:37:10 79° ESE 23:42:34 10° SSW
Cosmos 1733 Rocket 3.1 23:33:21 10° NNW 23:37:48 78° W 23:42:13 10° S
Cosmos 1992 Rocket 4.0 23:34:15 10° NNW 23:39:29 80° WSW 23:44:40 10° SSE
Cosmos 614 Rocket 4.3 23:34:35 10° S 23:39:43 61° ESE 23:44:51 10° NNE
SAR-Lupe-3 4.0 23:38:15 10° SSE 23:41:11 77° WSW 23:44:10 10° NNW
COSMOS 2455 2.9 23:35:35 10° NW 23:41:39 88° SW 23:47:42 10° SE
Lacrosse 4 Rocket 3.2 23:41:32 10° NNW 23:45:22 37° NE 23:49:15 10° ESE
ADEOS II 3.2 23:40:28 10° NNE 23:45:24 40° E 23:50:18 10° SSE
GENESIS II 3.5 23:42:36 10° NW 23:45:32 55° SW 23:48:27 10° SSE
Cosmos 1862 Rocket 4.0 23:41:53 10° S 23:46:15 64° E 23:50:41 10° NNE
Cosmos 2228 Rocket 3.5 23:43:14 10° S 23:47:45 64° E 23:52:16 10° NNE
ARIANE 6 FM1 Upper Stage 3.5 23:44:00 10° NW 23:48:03 56° NNE 23:52:10 10° ESE
Cosmos 1703 3.3 23:45:01 10° S 23:48:25 61° E 23:51:52 10° NNE
Cosmos 2237 Rocket 2.5 23:44:18 10° NW 23:49:43 48° WSW 23:55:08 10° S
ALOS 3.5 23:45:32 10° NNE 23:49:49 37° E 23:54:03 10° SSE
USA 281 3.7 23:46:13 10° NE 23:52:42 56° ESE 23:59:08 10° S
CZ-2D R/B 2.7 23:48:07 10° NNE 23:53:33 60° ESE 23:58:58 10° S
